Home > Weather > Delémont > Past weeks

Flag for Switzerland Past Weather in Delémont, Jura, Switzerland — Yesterday and Last 2 Weeks

Now
61 °F

Cool.


Feels Like: 61 °F
Forecast: 60 / 71 °F
Wind: 1 mph from East

Location: Grenchen

Current Time: Jul 30, 2016 at 4:02:27 AM

Latest Report: Jul 30, 2016 at 3:00 AM


Visibility: N/A

Pressure: 30.02 "Hg

Humidity: 95%

Dew Point: 59 °F

Location of DelémontLocation

Past Weather in Delémont — Graph

°F

Delémont Temperature Yesterday

Maximum temperature yesterday: 82 °F (at 5:00 PM)
Minimum temperature yesterday: 61 °F (at 7:00 AM)
Average temperature yesterday: 72 °F

High & Low Weather Summary for the Past Weeks

 TemperatureHumidityPressure
High91 °F (Jul 20, 6:00 PM)100% (Jul 15, 5:00 AM)30.38 "Hg (Jul 15, 5:00 AM)
Low44 °F (Jul 16, 6:00 AM)31% (Jul 20, 5:00 PM)29.89 "Hg (Jul 20, 6:00 PM)
Average69 °F73%30.10 "Hg
* Reported Jul 15 2:00 AM — Jul 30 2:00 AM, Delémont, Weather by CustomWeather, © 2016

Note: Actual official high and low records may vary slightly from our data, if they occured in-between our weather recording intervals... More about our weather records

Advertising

Delémont Weather History for the Previous 24 Hours

Scroll right to see more
 ConditionsComfort  
Time TempWeatherWind HumidityBarometerVisibility
2:00 AM
Sat, Jul 30
63 °FMild.1 mph93%30.01 "HgN/A
1:00 AM64 °FMild.2 mph89%30.01 "HgN/A
12:00 AM66 °FMild.2 mph83%30.00 "HgN/A
11:00 PM
Fri, Jul 29
69 °FMild.6 mph78%29.99 "HgN/A
10:00 PM74 °FMild.3 mph61%29.96 "HgN/A
9:00 PM76 °FMild.3 mph56%29.93 "HgN/A
8:00 PM80 °FWarm.5 mph50%29.92 "HgN/A
7:00 PM82 °FWarm.6 mph46%29.91 "HgN/A
6:00 PM82 °FWarm.8 mph43%29.91 "HgN/A
5:00 PM82 °FWarm.9 mph43%29.93 "HgN/A
4:00 PM82 °FWarm.10 mph44%29.93 "HgN/A
3:00 PM81 °FWarm.9 mph45%29.95 "HgN/A
2:00 PM79 °FWarm.6 mph48%29.97 "HgN/A
1:00 PM77 °FWarm.6 mph51%29.98 "HgN/A
12:00 PM76 °FMild.7 mph56%30.00 "HgN/A
11:00 AM73 °FMild.7 mph60%30.02 "HgN/A
10:00 AM71 °FMild.5 mph65%30.03 "HgN/A
9:00 AM68 °FMild.3 mph75%30.05 "HgN/A
8:00 AM65 °FMild.1 mph85%30.06 "HgN/A
7:00 AM61 °FCool.1 mph92%30.07 "HgN/A
6:00 AM61 °FCool.1 mph90%30.06 "HgN/A
5:00 AM65 °FMild.5 mph81%30.05 "HgN/A
4:00 AM64 °FMild.3 mph83%30.06 "HgN/A
Weather by CustomWeather, © 2016

See weather overviewHow to use our weather pages